User: anonymous   Login
Location: Trebic
(49.2170°N, 15.8830°E)
Time: 23:00:38
(UTC+02:00)
Language:

S-56A Canister/Altair - Orbit

View from above orbital plane
View from above orbital plane
View from above satellite
View from above satellite

Ground track
Ground track

The orbit data is extracted from the following two-line orbital elements,

1    82U 61004B   19199.87133059 +.00000059 +00000-0 +73296-4 0  9991
2    82 038.8669 357.2595 1175679 268.7644 077.8404 12.26043276766744
Epoch (UTC): 18 July 2019 20:54:42
Eccentricity: 0.1175679
inclination: 38.8669°
perigee height: 632 km
apogee height: 2500 km
right ascension of ascending node: 357.2595°
argument of perigee: 268.7644°
revolutions per day: 12.26043276
mean anomaly at epoch: 77.8404°
orbit number at epoch: 76674

The dashed part of the orbit path shows where the satellite is in the earth's shadow,  

DLR